CST,Max TemperatureF,Mean TemperatureF,Min TemperatureF,Max Dew PointF,MeanDew PointF,Min DewpointF,Max Humidity, Mean Humidity, Min Humidity, Max Sea Level PressureIn, Mean Sea Level PressureIn, Min Sea Level PressureIn, Max VisibilityMiles, Mean VisibilityMiles, Min VisibilityMiles, Max Wind SpeedMPH, Mean Wind SpeedMPH, Max Gust SpeedMPH,PrecipitationIn, CloudCover, Events, WindDirDegrees
2012-11-1,54,42,29,29,23,17,75,55,34,29.98,29.90,29.84,10,10,10,17,8,24,0.00,5,,315
2012-11-2,46,37,27,29,26,24,92,69,45,30.19,30.11,29.99,10,10,10,10,4,14,0.00,0,,4
2012-11-3,46,38,29,28,27,24,85,69,53,30.28,30.24,30.20,10,10,10,14,2,,T,5,Snow,35
2012-11-4,48,36,24,29,26,23,85,65,45,30.29,30.25,30.20,10,10,8,9,2,,0.00,2,,61
2012-11-5,44,33,21,30,26,20,96,76,55,30.26,30.20,30.11,10,8,2,12,2,14,0.00,2,,73
2012-11-6,38,32,25,37,33,24,100,88,75,30.12,29.93,29.85,8,4,2,16,7,18,0.14,7,Rain-Snow,173
2012-11-7,42,40,37,37,36,35,92,84,76,30.18,30.07,29.89,7,4,1,12,3,25,0.00,8,,352
2012-11-8,50,42,34,36,34,31,85,69,52,30.19,30.12,30.05,10,9,5,16,7,21,0.00,3,,187
2012-11-9,50,41,32,43,38,31,92,82,71,30.09,30.05,30.00,7,5,2,23,6,76,0.00,7,,97
2012-11-10,66,56,46,53,49,43,86,72,58,30.01,29.85,29.75,10,8,4,26,14,35,T,4,,152
2012-11-11,63,48,33,57,48,29,93,77,60,29.93,29.76,29.61,10,8,2,25,13,32,0.73,7,Rain-Thunderstorm,214
2012-11-12,33,29,25,25,17,14,82,70,57,30.35,30.11,29.95,10,10,9,16,9,28,T,6,Snow,273
2012-11-13,40,31,22,23,19,15,77,59,40,30.49,30.45,30.35,10,10,10,9,4,13,0.00,0,,235
2012-11-14,47,39,31,29,26,23,70,58,45,30.47,30.41,30.35,10,10,10,21,10,24,0.00,4,,183
2012-11-15,53,42,30,32,28,27,85,63,41,30.38,30.33,30.27,10,10,7,13,6,17,0.00,1,,192
2012-11-16,48,37,26,37,33,25,100,83,65,30.51,30.47,30.38,10,5,0,13,4,26,0.00,3,Fog,79
2012-11-17,53,42,31,37,33,30,100,73,45,30.53,30.48,30.44,10,5,0,15,7,24,0.00,4,Fog,168
2012-11-18,56,46,35,35,32,30,82,62,41,30.43,30.36,30.28,10,8,4,16,8,26,0.00,0,,167
2012-11-19,53,45,36,45,39,32,93,74,54,30.28,30.17,30.08,10,9,6,13,4,,0.03,6,Rain,174
2012-11-20,58,46,34,46,42,34,100,81,62,30.19,30.13,30.06,8,4,0,8,2,12,0.00,4,Fog,317
2012-11-21,56,45,34,44,40,34,100,81,61,30.20,30.12,30.01,9,4,0,16,9,20,0.00,1,Fog,184
2012-11-22,62,50,38,46,40,28,82,67,51,30.00,29.81,29.69,10,9,5,21,12,36,0.00,2,,213
2012-11-23,39,33,26,27,17,14,64,59,53,30.26,30.08,29.86,10,10,9,25,15,38,T,8,Snow,303
2012-11-24,32,28,23,20,16,13,68,61,53,30.28,30.15,29.93,10,10,10,12,8,,0.00,6,,257
2012-11-25,40,32,23,22,20,16,75,62,48,30.14,29.95,29.86,10,10,10,14,5,18,0.00,1,,298
2012-11-26,33,24,14,22,14,6,77,60,42,30.41,30.29,30.14,10,10,9,14,4,17,T,4,Snow,317
2012-11-27,33,22,11,15,11,7,76,57,38,30.42,30.32,30.23,10,10,10,12,4,17,0.00,3,,229
2012-11-28,43,33,23,23,19,14,74,55,36,30.39,30.30,30.22,10,10,10,9,4,16,0.00,0,,249
2012-11-29,50,40,29,32,28,24,85,66,46,30.22,30.14,30.07,10,9,7,12,5,,0.00,2,,164
2012-11-30,45,41,37,37,35,33,85,81,76,30.20,30.14,30.09,7,5,3,15,9,20,0.00,8,,58